Погода в Бутове

Россия / Московская область     55°32′45″N   37°35′24″E
темп.,
°C
ветер,
м/с
пор.,
м/с
влажн.,
%
обл.,
%
осадки,
мм/ч
давл.,
гПа
погр.,
м
15 мая, сб
сб1500:00+14вюв499883 0.3 1010232
03:00+13юв3897100 0.6 1009179
06:00+15вюв269777 0.0 1007154
09:00+20ю358032 0.3 1008537
12:00+22ююз5762100 2.0 10081535
15:00+22ю69546 2.3 10082048
18:00+19ююз610675 0.6 1008991
21:00+15ю413835 0.6 1009472
16 мая, вс
вс1600:00+13ююз513915 0.0 1009468
03:00+12ююз4109634 0.0 1010310
06:00+12ююз410932 0.0 1011342
09:00+17ююз58735 0.0 1012752
12:00+20ююз69564 0.1 10121724
15:00+21юз575492 0.1 10122030
18:00+20юз366343 0.0 1012795
21:00+15юз22820 0.0 101429
17 мая, пн
пн1700:00+14юз1187100 0.0 101413
03:00+13ююв118865 0.0 101511
06:00+14вюв238616 0.0 101594
09:00+19вюв357096 0.0 1015441
12:00+23вюв576258 0.0 1013979
15:00+24вюв685929 0.0 10121205
18:00+24вюв5107312 0.0 1010706
21:00+19юв51586100 0.0 1010488
18 мая, вт
вт1800:00+17юв5158667 0.0 1009366
03:00+16юв5148495 0.0 1008347
06:00+15юв51380100 0.0 1007343
09:00+20юв6116973 0.0 1007477
12:00+23юв7116140 0.0 10071100
15:00+24ююв71168100 1.0 10061384
18:00+20ю5107999 0.9 1007683
21:00+16ю378565 2.3 1007151
19 мая, ср
ср1900:00+15юв379190 0.2 1006205
03:00+15юв3996100 0.4 1005264
06:00+15юв41094100 0.0 1005395
09:00+18ююв5980100 0.7 1004519
12:00+16ююв3788100 3.3 1004395
15:00+17ююз6983100 6.9 1004861
18:00+16зюз5887100 2.6 1004606
21:00+12зюз4109485 3.9 1007330